Volver al catálogo

STARLINK-33637

ActivoComunicacionesVLEO
NORAD 63470·PAYLOAD·🇺🇸 United States

Lanzado Apr 6, 2025 desde Cape Canaveral Space Force Station

Loading…

Próximos Pases (próximas 24 horas)

TLE

ActualizadoSource: CelesTrak SupGP

Época: Sep 15, 2026, 02:46 UTC

1 63470C 25070L   26258.11576389 -.00005996  00000+0 -21724-3 0  2584
2 63470  42.9995 270.4565 0001298 277.2724  11.3245 15.27573145    17

Sigue STARLINK-33637 en tiempo real con AllMySat

Download on the App Store